[[{"header":{"parameterUnit":"m.s-1","parameterCategory":1,"la1":30.2991,"la2":30.254,"lo1":-89.0895,"lo2":-89.0444,"dy":0.0017,"dx":0.0017,"nx":28,"ny":28,"refTime":"2024-03-21T03:00:00:Z","depth":0,"parameterNumber":2,"parameterNumberName":"U-component_of_WINDS"},"data":[0,0,0,0,0,0,0,0,0,0,0,0,0,0,0,0,0,0,0,0,0,0,0,0,0,0,0,0,0,0,0,0,0,0,0,0,0,0,0,0,0,0,0,0,0,0,0,0,0,0,0,0,0,0,0,0,0,0,0.6548,0.6549,0,0.6673,0.6675,0.6676,0.6711,0.6711,0.671,0.6709,0.684,0.6844,0.6848,0,0,0,0,0,0,0,0,0,0,0,0,0,0.6338,0.6342,0.6547,0.6549,0.6551,0.6673,0.6675,0.6677,0.6711,0.6711,0.671,0.6709,0.6839,0.6843,0.6848,0,0,0,0,0,0,0,0,0,0,0,0,0,0.6443,0.6343,0.6547,0.6583,0.6587,0.6673,0.6675,0.6677,0.6712,0.671,0.6709,0.6708,0.6837,0.6843,0.6849,0.6909,0,0,0.6868,0.6871,0,0,0,0,0,0,0,0,0.6437,0.6451,0.6576,0.658,0.6585,0.6675,0.6649,0.6755,0.6712,0.6664,0.6709,0.6708,0.6786,0.6797,0.6823,0.6915,0.6921,0.6869,0.6872,0.6875,0.6877,0,0,0,0,0,0,0,0.643,0.6446,0.6597,0.6578,0.6584,0.6593,0.6606,0.6669,0.673,0.6668,0.6671,0.6686,0.6789,0.6816,0.6826,0.6923,0.6869,0.6874,0.6878,0.688,0.707,0.7071,0,0,0,0,0,0,0.6416,0.6439,0.6593,0.6601,0.6507,0.6597,0.6613,0.6648,0.6729,0.6741,0.6686,0.6687,0.6806,0.6819,0.6831,0.6905,0.6875,0.6881,0.6885,0.7068,0.707,0.7071,0,0,0,0,0,0,0.6412,0.643,0.6588,0.6521,0.6542,0.6602,0.6641,0.6651,0.6679,0.6743,0.6754,0.6704,0.6806,0.6822,0.6889,0.691,0.6884,0.6889,0.7067,0.7069,0.7071,0.7055,0,0,0,0,0,0,0.6406,0.6428,0.6451,0.6521,0.6545,0.6644,0.6642,0.6654,0.6689,0.6691,0.6762,0.6773,0.6806,0.6879,0.6895,0.6918,0.6894,0.7065,0.7068,0.707,0.7054,0.7056,0.7058,0,0,0,0,0,0.6398,0.6442,0.6452,0.647,0.6575,0.6645,0.6659,0.6696,0.6691,0.6714,0.6755,0.677,0.6905,0.6886,0.6904,0.6929,0.7064,0.7067,0.707,0.7053,0.7056,0.7058,0,0,0,0,0,0,0.6374,0.6452,0.6464,0.6532,0.6581,0.6651,0.6682,0.6698,0.6751,0.675,0.6795,0.6811,0.6874,0.6909,0.6886,0.6991,0.6985,0.6992,0.6966,0.6969,0.6971,0.6962,0.6899,0,0,0,0,0,0.6376,0.6426,0.6492,0.6546,0.657,0.6621,0.6653,0.6678,0.6731,0.6752,0.6798,0.685,0.6904,0.6939,0.6992,0.7059,0.7075,0.7086,0.7088,0.7089,0.7094,0.7132,0.7137,0.7081,0.7081,0.7081,0,0,0.6382,0.6431,0.646,0.6542,0.6583,0.6634,0.6639,0.6692,0.673,0.6761,0.6826,0.6862,0.6923,0.6989,0.7021,0.702,0.7113,0.7093,0.7094,0.7098,0.7135,0.714,0.7145,0.7083,0.7083,0.7082,0,0,0.6418,0.6461,0.6509,0.655,0.6612,0.6646,0.6658,0.6725,0.6749,0.6816,0.6839,0.6885,0.6978,0.702,0.7053,0.7104,0.7119,0.712,0.7131,0.7167,0.7171,0.7175,0.7193,0.7199,0.7125,0.7125,0.7125,0,0.6418,0.6494,0.6533,0.6585,0.662,0.6649,0.6699,0.6737,0.6813,0.6837,0.6835,0.695,0.6993,0.707,0.7082,0.7108,0.7123,0.7112,0.7168,0.7172,0.7176,0.7194,0.72,0.7125,0.7125,0.7125,0.7125,0,0.649,0.6543,0.6575,0.6647,0.6686,0.6737,0.6783,0.6818,0.6839,0.6873,0.694,0.6992,0.7056,0.7077,0.7098,0.7156,0.7153,0.7159,0.7153,0.7181,0.7198,0.7205,0.7124,0.7124,0.7124,0.7125,0,0,0.6515,0.6607,0.6618,0.665,0.6721,0.6762,0.6814,0.6876,0.6905,0.6957,0.7001,0.7078,0.7083,0.7121,0.7147,0.7178,0.7214,0.718,0.7182,0.7184,0.7281,0.7276,0.7283,0.7225,0.7227,0.7228,0.7275,0,0.6559,0.6652,0.6688,0.6764,0.6813,0.6841,0.6886,0.6934,0.6967,0.7014,0.7051,0.7104,0.7107,0.713,0.7162,0.7203,0.7234,0.72,0.7267,0.7269,0.725,0.7292,0.7287,0.733,0.7282,0.7284,0.7284,0,0.6623,0.6674,0.6755,0.6818,0.684,0.688,0.6939,0.6983,0.7038,0.706,0.7102,0.7126,0.7181,0.7173,0.725,0.7225,0.7255,0.7279,0.7281,0.7289,0.7278,0.7299,0.7344,0.735,0.7295,0.7294,0.7294,0,0.6632,0.6721,0.6781,0.6808,0.6884,0.6911,0.6944,0.6997,0.7032,0.7084,0.7107,0.7164,0.7196,0.724,0.7279,0.727,0.7352,0.7347,0.7372,0.7371,0.7388,0.7386,0.7437,0.7408,0.7408,0.7408,0.7407,0,0.6677,0.6725,0.6785,0.6822,0.6876,0.6917,0.697,0.7005,0.7052,0.7096,0.7124,0.7165,0.7215,0.7262,0.7293,0.7351,0.7366,0.7385,0.7392,0.7382,0.7379,0.7401,0.7399,0.7409,0.7409,0.7409,0.7408,0,0.6696,0.6738,0.6804,0.687,0.6888,0.6925,0.6982,0.7018,0.7053,0.7108,0.7123,0.7177,0.7234,0.7277,0.7351,0.7372,0.7434,0.7442,0.7415,0.7419,0.7441,0.7438,0.7507,0.7518,0.7482,0.7482,0.7482,0,0.6721,0.6759,0.6828,0.6859,0.6892,0.6942,0.6977,0.7018,0.7054,0.7119,0.7147,0.7206,0.7255,0.7344,0.739,0.7447,0.7456,0.7477,0.7465,0.7453,0.7456,0.7453,0.7457,0.7478,0.7478,0.7479,0.7479,0,0.6762,0.6781,0.683,0.6887,0.6927,0.6974,0.7021,0.7045,0.7096,0.7134,0.7192,0.723,0.7305,0.7362,0.7423,0.7458,0.7477,0.7482,0.7491,0.748,0.7462,0.7471,0.7418,0.748,0.748,0.748,0.748,0.748,0.6785,0.6819,0.6873,0.6927,0.6966,0.701,0.7047,0.7085,0.7134,0.7198,0.722,0.7279,0.7333,0.7417,0.7451,0.7499,0.7499,0.7512,0.7515,0.7517,0.7516,0.7455,0.751,0.751,0.751,0.751,0.751,0,0.6826,0.6862,0.6911,0.6976,0.7018,0.7031,0.7084,0.7119,0.717,0.7219,0.7266,0.7332,0.7388,0.7438,0.7496,0.7524,0.7534,0.7538,0.7536,0.7544,0.7513,0.7499,0.7529,0.7529,0.7529,0.7529,0.7529,0.7529,0.6852,0.6911,0.6936,0.7014,0.705,0.7108,0.7137,0.7177,0.7215,0.7288,0.7334,0.7366,0.7415,0.7477,0.7529,0.7542,0.7562,0.7563,0.7579,0.7549,0.7546,0.7544,0.7531,0.7567,0.7568,0.7606,0.7606,0.7607]},{"header":{"parameterUnit":"m.s-1","parameterCategory":1,"la1":30.2991,"la2":30.254,"lo1":-89.0895,"lo2":-89.0444,"dy":0.0017,"dx":0.0017,"nx":28,"ny":28,"refTime":"2024-03-21T03:00:00:Z","depth":0,"parameterNumber":3,"parameterNumberName":"V-component_of_WINDS"},"data":[0,0,0,0,0,0,0,0,0,0,0,0,0,0,0,0,0,0,0,0,0,0,0,0,0,0,0,0,0,0,0,0,0,0,0,0,0,0,0,0,0,0,0,0,0,0,0,0,0,0,0,0,0,0,0,0,0,0,2.7311,2.731,0,2.7273,2.7272,2.7272,2.7244,2.7244,2.7244,2.7243,2.72,2.7199,2.7198,0,0,0,0,0,0,0,0,0,0,0,0,0,2.7356,2.7356,2.7311,2.731,2.731,2.7273,2.7272,2.7272,2.7244,2.7244,2.7244,2.7243,2.7201,2.7199,2.7198,0,0,0,0,0,0,0,0,0,0,0,0,0,2.7329,2.7355,2.7311,2.7292,2.729,2.7273,2.7272,2.7272,2.7244,2.7244,2.7243,2.7243,2.7201,2.72,2.7198,2.7196,0,0,2.7194,2.7193,0,0,0,0,0,0,0,0,2.7331,2.7328,2.7295,2.7293,2.7291,2.7263,2.7272,2.7246,2.7244,2.7261,2.7243,2.7243,2.7221,2.7218,2.7211,2.7194,2.7192,2.7194,2.7193,2.7192,2.7192,0,0,0,0,0,0,0,2.7333,2.7329,2.7296,2.7295,2.7292,2.7284,2.728,2.7267,2.7243,2.726,2.7258,2.7254,2.722,2.7213,2.721,2.7192,2.7194,2.7192,2.7192,2.7191,2.717,2.717,0,0,0,0,0,0,2.7338,2.7331,2.7297,2.7295,2.731,2.7283,2.7279,2.7272,2.7243,2.7239,2.7254,2.7253,2.7215,2.7212,2.7209,2.7204,2.7192,2.7191,2.719,2.717,2.717,2.717,0,0,0,0,0,0,2.7339,2.7335,2.7298,2.7312,2.7307,2.7283,2.7276,2.7272,2.7265,2.7239,2.7234,2.7252,2.7215,2.7211,2.72,2.7202,2.719,2.7189,2.7169,2.717,2.717,2.7195,0,0,0,0,0,0,2.7341,2.7336,2.7336,2.7312,2.7306,2.7291,2.7276,2.7271,2.7263,2.726,2.7236,2.7231,2.7214,2.7202,2.7198,2.72,2.7188,2.7169,2.717,2.717,2.7194,2.7196,2.7198,0,0,0,0,0,2.7342,2.7343,2.7336,2.7332,2.7306,2.7292,2.7288,2.727,2.7263,2.7262,2.7246,2.7232,2.7203,2.7201,2.7197,2.7198,2.7169,2.7169,2.717,2.7193,2.7196,2.7198,0,0,0,0,0,0,2.7366,2.734,2.7331,2.7325,2.7311,2.7287,2.7285,2.7273,2.726,2.7258,2.7235,2.7229,2.7221,2.7208,2.7207,2.7194,2.7184,2.7184,2.7203,2.7205,2.7207,2.721,2.7187,0,0,0,0,0,2.7371,2.7363,2.734,2.7337,2.733,2.7309,2.7302,2.729,2.7273,2.7267,2.725,2.7233,2.722,2.7212,2.7199,2.7192,2.7186,2.7191,2.7193,2.7195,2.7195,2.7189,2.7191,2.7172,2.7172,2.7172,0,0,2.738,2.7365,2.7361,2.7341,2.7329,2.732,2.7304,2.7295,2.7288,2.7265,2.7254,2.7241,2.7221,2.7212,2.7207,2.7201,2.7199,2.7196,2.7197,2.7196,2.719,2.7192,2.7194,2.7173,2.7173,2.7173,0,0,2.7393,2.7381,2.7377,2.7365,2.7347,2.7333,2.7332,2.731,2.73,2.7289,2.7272,2.7262,2.724,2.7227,2.7217,2.7225,2.7211,2.7221,2.7232,2.7228,2.7229,2.723,2.7232,2.7233,2.7221,2.7221,2.7221,0,2.7406,2.7393,2.7376,2.7368,2.7359,2.734,2.7335,2.7323,2.7301,2.7295,2.7289,2.7262,2.7247,2.7234,2.7237,2.723,2.7227,2.7223,2.7231,2.7231,2.7232,2.7234,2.7235,2.7222,2.7222,2.7222,2.7222,0,2.741,2.7401,2.74,2.7381,2.7372,2.7366,2.7346,2.7339,2.7327,2.7313,2.7302,2.7284,2.7266,2.7262,2.725,2.7248,2.7245,2.7235,2.7224,2.7236,2.7237,2.7237,2.7224,2.7224,2.7223,2.7223,0,0,2.7436,2.7408,2.7407,2.7398,2.7377,2.7369,2.7361,2.7346,2.734,2.7325,2.7317,2.73,2.7291,2.728,2.7266,2.7262,2.7269,2.7253,2.7252,2.7256,2.7264,2.7271,2.7272,2.726,2.726,2.726,2.7265,0,2.7444,2.7431,2.7415,2.7407,2.7398,2.7379,2.7372,2.7358,2.7345,2.7335,2.732,2.7308,2.7297,2.729,2.7286,2.7269,2.727,2.7268,2.7251,2.7251,2.7256,2.7273,2.728,2.7286,2.7266,2.7266,2.7266,0,2.7452,2.744,2.7431,2.7411,2.7406,2.7401,2.7385,2.7376,2.7359,2.7349,2.7338,2.7323,2.7313,2.7304,2.7289,2.7289,2.7281,2.7271,2.7271,2.7268,2.7259,2.7269,2.7288,2.7288,2.7267,2.7267,2.7266,0,2.7471,2.7452,2.7444,2.7437,2.7413,2.741,2.7399,2.7382,2.7374,2.736,2.7354,2.7338,2.7329,2.7317,2.7298,2.7294,2.7285,2.7275,2.7276,2.7276,2.7274,2.7274,2.729,2.727,2.727,2.727,2.727,0,2.7481,2.7476,2.7452,2.7447,2.7441,2.7423,2.7416,2.7404,2.7389,2.7381,2.7363,2.7356,2.7332,2.7321,2.7306,2.7295,2.7291,2.7283,2.7279,2.7284,2.7285,2.7278,2.7276,2.7271,2.727,2.727,2.727,0,2.75,2.7484,2.7475,2.7453,2.7448,2.7444,2.7425,2.7419,2.7406,2.7395,2.7392,2.737,2.7356,2.7337,2.7316,2.7306,2.7297,2.7291,2.7304,2.7301,2.7303,2.7303,2.7314,2.7315,2.7296,2.7296,2.7296,0,2.7508,2.7504,2.7483,2.7476,2.7467,2.7457,2.7449,2.743,2.7422,2.7403,2.7399,2.7384,2.7371,2.735,2.7331,2.7315,2.7308,2.7313,2.7306,2.7311,2.7307,2.7308,2.7307,2.7315,2.7315,2.7316,2.7316,0,2.7522,2.7515,2.7504,2.7491,2.7482,2.747,2.7458,2.7453,2.7432,2.7423,2.741,2.74,2.738,2.7365,2.7347,2.7335,2.7321,2.7319,2.7318,2.7323,2.733,2.7325,2.7308,2.7318,2.7318,2.7318,2.7318,2.7318,2.7535,2.7531,2.7515,2.7504,2.7493,2.7482,2.7475,2.7461,2.745,2.7434,2.7423,2.741,2.7392,2.7367,2.7356,2.7344,2.7338,2.7338,2.7337,2.7337,2.7339,2.7333,2.7341,2.7341,2.734,2.734,2.734,0,2.7548,2.7538,2.7528,2.7511,2.7502,2.7492,2.7478,2.7471,2.746,2.7445,2.7434,2.7418,2.7403,2.7384,2.7368,2.7362,2.7356,2.7359,2.7358,2.7356,2.7345,2.7347,2.7364,2.7364,2.7364,2.7364,2.7364,2.7364,2.7554,2.7546,2.7536,2.7522,2.7511,2.75,2.7492,2.7481,2.747,2.7453,2.7442,2.743,2.7414,2.7396,2.7382,2.7377,2.7371,2.7376,2.7368,2.7358,2.7356,2.7354,2.7356,2.7375,2.7375,2.738,2.738,2.738]}]]